When you browse on this site, cookies collect data to enhance your experience and personalize the content and advertising you see.
Visit our Privacy Policy to learn more. By continuing to use the site, you agree to this use of cookies and data.
  • Em Portugal
  • Lista de países
  • Para 7 dias
  • Temperatura da água
  • Mapas de satélite
  • Mapa do tempo
  • Widgets de tempo
  • user-avatar
    Iniciar Sessão

    Previsão horária em Ghent

    Hoje, 17 Fevereiro, Domingo

    Tempo Temperatura Precipitação Vento Pressão Humidade
    00:00 +5°C° 0 mm 3 m/s 767 mmHg 85%
    01:00 +5°C° 0 mm 3 m/s 767 mmHg 86%
    02:00 +5°C° 0 mm 3 m/s 766 mmHg 87%
    03:00 +5°C° 0 mm 3 m/s 766 mmHg 87%
    04:00 +5°C° 0 mm 3 m/s 766 mmHg 88%
    05:00 +4°C° 0 mm 3 m/s 765 mmHg 88%
    06:00 +4°C° 0 mm 4 m/s 765 mmHg 89%
    07:00 +5°C° 0 mm 4 m/s 765 mmHg 84%
    08:00 +6°C° 0 mm 4 m/s 765 mmHg 79%
    09:00 +7°C° 0 mm 5 m/s 764 mmHg 74%
    10:00 +8°C° 0 mm 5 m/s 764 mmHg 67%
    11:00 +10°C° 0 mm 6 m/s 764 mmHg 60%
    12:00 +13°C° 0 mm 6 m/s 764 mmHg 53%
    13:00 +13°C° 0 mm 6 m/s 763 mmHg 52%
    14:00 +13°C° 0 mm 5 m/s 763 mmHg 52%
    15:00 +13°C° 0 mm 5 m/s 763 mmHg 51%
    16:00 +12°C° 0 mm 5 m/s 763 mmHg 56%
    17:00 +11°C° 0 mm 4 m/s 763 mmHg 60%
    18:00 +8°C° 0 mm 4 m/s 763 mmHg 64%
    19:00 +8°C° 0 mm 4 m/s 763 mmHg 65%
    20:00 +7°C° 0 mm 4 m/s 763 mmHg 67%
    21:00 +7°C° 0 mm 4 m/s 763 mmHg 68%
    22:00 +6°C° 0 mm 4 m/s 763 mmHg 70%
    23:00 +6°C° 0 mm 4 m/s 763 mmHg 71%

    Amanhã, 18 Fevereiro, Segunda-feira

    Tempo Temperatura Precipitação Vento Pressão Humidade
    00:00 +6°C° 0 mm 4 m/s 763 mmHg 73%
    01:00 +6°C° 0 mm 4 m/s 763 mmHg 74%
    02:00 +5°C° 0 mm 4 m/s 762 mmHg 76%
    03:00 +5°C° 0 mm 4 m/s 762 mmHg 78%
    04:00 +5°C° 0 mm 4 m/s 762 mmHg 79%
    05:00 +4°C° 0 mm 3 m/s 762 mmHg 81%
    06:00 +4°C° 0 mm 3 m/s 762 mmHg 82%
    07:00 +5°C° 0 mm 4 m/s 762 mmHg 80%
    08:00 +6°C° 0 mm 4 m/s 762 mmHg 77%
    09:00 +7°C° 0 mm 5 m/s 762 mmHg 75%
    10:00 +8°C° 0 mm 5 m/s 762 mmHg 72%
    11:00 +9°C° 0 mm 5 m/s 762 mmHg 68%
    12:00 +12°C° 0 mm 5 m/s 761 mmHg 65%
    13:00 +12°C° 0 mm 5 m/s 761 mmHg 64%
    14:00 +12°C° 0 mm 5 m/s 761 mmHg 63%
    15:00 +13°C° 0 mm 5 m/s 761 mmHg 62%
    16:00 +12°C° 0 mm 4 m/s 761 mmHg 67%
    17:00 +10°C° 0 mm 4 m/s 761 mmHg 73%
    18:00 +9°C° 0 mm 3 m/s 761 mmHg 78%
    19:00 +9°C° 0 mm 3 m/s 761 mmHg 81%
    20:00 +9°C° 0 mm 3 m/s 761 mmHg 84%
    21:00 +8°C° 0 mm 3 m/s 761 mmHg 86%
    22:00 +8°C° 0.5 mm 3 m/s 761 mmHg 88%
    23:00 +8°C° 0.5 mm 3 m/s 761 mmHg 90%

    Depois de amanhã, 19 Fevereiro, Terça-feira

    Tempo Temperatura Precipitação Vento Pressão Humidade
    00:00 +8°C° 0.5 mm 3 m/s 761 mmHg 92%
    01:00 +8°C° 0.4 mm 3 m/s 761 mmHg 92%
    02:00 +7°C° 0.4 mm 4 m/s 761 mmHg 91%
    03:00 +6°C° 0.4 mm 4 m/s 761 mmHg 91%
    04:00 +6°C° 0 mm 4 m/s 762 mmHg 91%
    05:00 +5°C° 0 mm 4 m/s 762 mmHg 91%
    06:00 +5°C° 0 mm 4 m/s 762 mmHg 91%
    07:00 +5°C° 0 mm 4 m/s 763 mmHg 87%
    08:00 +6°C° 0 mm 5 m/s 763 mmHg 82%
    09:00 +6°C° 0 mm 5 m/s 763 mmHg 78%
    10:00 +7°C° 0 mm 5 m/s 764 mmHg 72%
    11:00 +8°C° 0 mm 5 m/s 764 mmHg 67%
    12:00 +10°C° 0 mm 6 m/s 764 mmHg 62%
    13:00 +10°C° 0 mm 5 m/s 764 mmHg 60%
    14:00 +10°C° 0 mm 5 m/s 764 mmHg 59%
    15:00 +10°C° 0 mm 5 m/s 764 mmHg 58%
    16:00 +10°C° 0 mm 4 m/s 764 mmHg 63%
    17:00 +8°C° 0 mm 4 m/s 765 mmHg 68%
    18:00 +8°C° 0 mm 3 m/s 765 mmHg 74%
    19:00 +8°C° 0 mm 3 m/s 765 mmHg 76%
    20:00 +7°C° 0 mm 3 m/s 765 mmHg 79%
    21:00 +7°C° 0 mm 3 m/s 766 mmHg 81%
    22:00 +7°C° 0 mm 3 m/s 766 mmHg 82%
    23:00 +7°C° 0 mm 3 m/s 766 mmHg 83%

    20 Fevereiro, Quarta-feira

    Tempo Temperatura Precipitação Vento Pressão Humidade
    00:00 +7°C° 0 mm 3 m/s 766 mmHg 83%
    01:00 +5°C° 0 mm 3 m/s 766 mmHg 84%
    02:00 +5°C° 0 mm 3 m/s 766 mmHg 85%
    03:00 +5°C° 0 mm 3 m/s 766 mmHg 85%
    04:00 +5°C° 0 mm 3 m/s 766 mmHg 85%
    05:00 +4°C° 0 mm 3 m/s 766 mmHg 85%
    06:00 +4°C° 0 mm 3 m/s 766 mmHg 85%
    07:00 +4°C° 0 mm 3 m/s 766 mmHg 81%
    08:00 +5°C° 0 mm 4 m/s 766 mmHg 77%
    09:00 +6°C° 0 mm 4 m/s 766 mmHg 74%
    10:00 +7°C° 0 mm 4 m/s 767 mmHg 68%
    11:00 +8°C° 0 mm 4 m/s 767 mmHg 63%
    12:00 +9°C° 0 mm 5 m/s 767 mmHg 57%
    13:00 +11°C° 0 mm 4 m/s 766 mmHg 57%
    14:00 +11°C° 0 mm 4 m/s 766 mmHg 57%
    15:00 +12°C° 0 mm 4 m/s 766 mmHg 57%
    16:00 +11°C° 0 mm 4 m/s 766 mmHg 64%
    17:00 +9°C° 0 mm 3 m/s 766 mmHg 70%
    18:00 +8°C° 0 mm 3 m/s 767 mmHg 76%
    19:00 +8°C° 0 mm 3 m/s 767 mmHg 79%
    20:00 +8°C° 0 mm 3 m/s 767 mmHg 82%
    21:00 +7°C° 0 mm 3 m/s 767 mmHg 84%
    22:00 +7°C° 0 mm 3 m/s 767 mmHg 86%
    23:00 +7°C° 0 mm 3 m/s 767 mmHg 88%

    21 Fevereiro, Quinta-feira

    Tempo Temperatura Precipitação Vento Pressão Humidade
    00:00 +7°C° 0 mm 3 m/s 767 mmHg 89%
    01:00 +7°C° 0 mm 3 m/s 768 mmHg 90%
    02:00 +5°C° 0 mm 3 m/s 768 mmHg 91%
    03:00 +5°C° 0 mm 3 m/s 768 mmHg 92%
    04:00 +5°C° 0 mm 3 m/s 768 mmHg 92%
    05:00 +5°C° 0 mm 3 m/s 768 mmHg 92%
    06:00 +5°C° 0 mm 3 m/s 769 mmHg 93%
    07:00 +7°C° 0 mm 3 m/s 769 mmHg 90%
    08:00 +7°C° 0 mm 3 m/s 769 mmHg 87%
    09:00 +8°C° 0 mm 3 m/s 770 mmHg 85%
    10:00 +10°C° 0 mm 3 m/s 770 mmHg 80%
    11:00 +11°C° 0 mm 3 m/s 770 mmHg 75%
    12:00 +12°C° 0 mm 3 m/s 770 mmHg 71%
    13:00 +13°C° 0 mm 3 m/s 770 mmHg 70%
    14:00 +13°C° 0 mm 3 m/s 770 mmHg 69%
    15:00 +13°C° 0 mm 3 m/s 770 mmHg 68%
    16:00 +13°C° 0 mm 2 m/s 770 mmHg 74%
    17:00 +12°C° 0 mm 2 m/s 770 mmHg 79%
    18:00 +10°C° 0 mm 1 m/s 771 mmHg 85%
    19:00 +10°C° 0 mm 1 m/s 771 mmHg 86%
    20:00 +9°C° 0 mm 1 m/s 771 mmHg 88%
    21:00 +9°C° 0 mm 1 m/s 772 mmHg 89%
    22:00 +8°C° 0 mm 1 m/s 772 mmHg 89%
    23:00 +8°C° 0 mm 1 m/s 772 mmHg 90%

    22 Fevereiro, Sexta-feira

    Tempo Temperatura Precipitação Vento Pressão Humidade
    00:00 +8°C° 0 mm 1 m/s 773 mmHg 90%
    01:00 +7°C° 0 mm 1 m/s 773 mmHg 91%
    02:00 +7°C° 0 mm 1 m/s 772 mmHg 91%
    03:00 +7°C° 0 mm 1 m/s 772 mmHg 91%
    04:00 +7°C° 0 mm 1 m/s 773 mmHg 91%
    05:00 +7°C° 0 mm 1 m/s 773 mmHg 91%
    06:00 +6°C° 0 mm 1 m/s 773 mmHg 91%
    07:00 +7°C° 0 mm 1 m/s 774 mmHg 88%
    08:00 +7°C° 0 mm 0 m/s 774 mmHg 85%
    09:00 +8°C° 0 mm 0 m/s 774 mmHg 82%
    10:00 +10°C° 0 mm 0 m/s 775 mmHg 77%
    11:00 +12°C° 0 mm 1 m/s 775 mmHg 72%
    12:00 +14°C° 0 mm 1 m/s 775 mmHg 67%
    13:00 +14°C° 0 mm 1 m/s 774 mmHg 66%
    14:00 +15°C° 0 mm 2 m/s 774 mmHg 65%
    15:00 +15°C° 0 mm 2 m/s 774 mmHg 64%
    16:00 +14°C° 0 mm 2 m/s 774 mmHg 70%
    17:00 +13°C° 0 mm 2 m/s 774 mmHg 77%
    18:00 +10°C° 0 mm 2 m/s 774 mmHg 83%
    19:00 +10°C° 0 mm 2 m/s 775 mmHg 84%
    20:00 +10°C° 0 mm 3 m/s 775 mmHg 85%
    21:00 +10°C° 0 mm 3 m/s 775 mmHg 86%
    22:00 +9°C° 0 mm 3 m/s 775 mmHg 87%
    23:00 +8°C° 0 mm 3 m/s 775 mmHg 87%
    Mostrar mais